Time,TemperatureF,DewpointF,PressureIn,WindDirection,WindDirectionDegrees,WindSpeedMPH,WindSpeedGustMPH,Humidity,HourlyPrecipIn,Conditions,Clouds,dailyrainin,SoftwareType,DateUTC
2013-03-20 00:00:00,50.9,18.1,29.69,North,-999,-999.0,-999.0,27,-99.99,,,-99.99,meteohub,2013-03-20 04:00:00,
2013-03-20 00:01:00,50.7,18.0,29.69,North,-999,-999.0,-999.0,27,-99.99,,,-99.99,meteohub,2013-03-20 04:01:00,
2013-03-20 00:03:00,50.7,18.0,29.69,North,-999,-999.0,-999.0,27,-99.99,,,-99.99,meteohub,2013-03-20 04:03:00,
2013-03-20 00:08:00,50.5,17.1,29.69,North,-999,-999.0,-999.0,26,-99.99,,,-99.99,meteohub,2013-03-20 04:08:00,
2013-03-20 00:13:00,50.5,17.8,29.69,North,-999,-999.0,-999.0,27,-99.99,,,-99.99,meteohub,2013-03-20 04:13:00,
2013-03-20 00:18:00,50.2,17.6,29.69,North,-999,-999.0,-999.0,27,-99.99,,,-99.99,meteohub,2013-03-20 04:18:00,
2013-03-20 00:24:00,50.2,16.7,29.69,North,-999,-999.0,-999.0,26,-99.99,,,-99.99,meteohub,2013-03-20 04:24:00,
2013-03-20 00:29:00,50.0,16.5,29.69,North,-999,-999.0,-999.0,26,-99.99,,,-99.99,meteohub,2013-03-20 04:29:00,
2013-03-20 00:34:00,49.8,17.2,29.69,North,-999,-999.0,-999.0,27,-99.99,,,-99.99,meteohub,2013-03-20 04:34:00,
2013-03-20 00:39:00,49.8,17.2,29.69,North,-999,-999.0,-999.0,27,-99.99,,,-99.99,meteohub,2013-03-20 04:39:00,
2013-03-20 00:44:00,49.5,16.9,29.69,North,-999,-999.0,-999.0,27,-99.99,,,-99.99,meteohub,2013-03-20 04:44:00,
2013-03-20 00:49:00,49.3,16.7,29.69,North,-999,-999.0,-999.0,27,-99.99,,,-99.99,meteohub,2013-03-20 04:49:00,
2013-03-20 00:54:00,49.3,16.7,29.69,North,-999,-999.0,-999.0,27,-99.99,,,-99.99,meteohub,2013-03-20 04:54:00,
2013-03-20 00:59:00,49.3,16.7,29.69,North,-999,-999.0,-999.0,27,-99.99,,,-99.99,meteohub,2013-03-20 04:59:00,
2013-03-20 01:05:00,49.3,16.7,29.69,North,-999,-999.0,-999.0,27,-99.99,,,-99.99,meteohub,2013-03-20 05:05:00,
2013-03-20 01:10:00,49.3,16.7,29.69,North,-999,-999.0,-999.0,27,-99.99,,,-99.99,meteohub,2013-03-20 05:10:00,
2013-03-20 01:15:00,49.1,16.7,29.69,North,-999,-999.0,-999.0,27,-99.99,,,-99.99,meteohub,2013-03-20 05:15:00,
2013-03-20 01:20:00,49.1,16.7,29.69,North,-999,-999.0,-999.0,27,-99.99,,,-99.99,meteohub,2013-03-20 05:20:00,
2013-03-20 01:26:00,49.1,16.7,29.69,North,-999,-999.0,-999.0,27,-99.99,,,-99.99,meteohub,2013-03-20 05:26:00,
2013-03-20 01:32:00,48.9,16.5,29.69,North,-999,-999.0,-999.0,27,-99.99,,,-99.99,meteohub,2013-03-20 05:32:00,
2013-03-20 01:37:00,48.9,16.5,29.69,North,-999,-999.0,-999.0,27,-99.99,,,-99.99,meteohub,2013-03-20 05:37:00,
2013-03-20 01:42:00,48.7,16.3,29.69,North,-999,-999.0,-999.0,27,-99.99,,,-99.99,meteohub,2013-03-20 05:42:00,
2013-03-20 01:47:00,48.6,16.2,29.69,North,-999,-999.0,-999.0,27,-99.99,,,-99.99,meteohub,2013-03-20 05:47:00,
2013-03-20 01:52:00,48.4,16.0,29.69,North,-999,-999.0,-999.0,27,-99.99,,,-99.99,meteohub,2013-03-20 05:52:00,
2013-03-20 01:58:00,48.2,15.8,29.69,North,-999,-999.0,-999.0,27,-99.99,,,-99.99,meteohub,2013-03-20 05:58:00,
2013-03-20 02:03:00,48.0,15.6,29.69,North,-999,-999.0,-999.0,27,-99.99,,,-99.99,meteohub,2013-03-20 06:03:00,
2013-03-20 02:08:00,47.8,15.6,29.69,North,-999,-999.0,-999.0,27,-99.99,,,-99.99,meteohub,2013-03-20 06:08:00,
2013-03-20 02:13:00,47.7,15.4,29.69,North,-999,-999.0,-999.0,27,-99.99,,,-99.99,meteohub,2013-03-20 06:13:00,
2013-03-20 02:18:00,47.3,15.1,29.69,North,-999,-999.0,-999.0,27,-99.99,,,-99.99,meteohub,2013-03-20 06:18:00,
2013-03-20 02:23:00,46.9,14.7,29.69,North,-999,-999.0,-999.0,27,-99.99,,,-99.99,meteohub,2013-03-20 06:23:00,
2013-03-20 02:29:00,46.8,14.5,29.69,North,-999,-999.0,-999.0,27,-99.99,,,-99.99,meteohub,2013-03-20 06:29:00,
2013-03-20 02:34:00,46.6,14.5,29.69,North,-999,-999.0,-999.0,27,-99.99,,,-99.99,meteohub,2013-03-20 06:34:00,
2013-03-20 02:39:00,46.4,14.4,29.69,North,-999,-999.0,-999.0,27,-99.99,,,-99.99,meteohub,2013-03-20 06:39:00,
2013-03-20 02:44:00,46.4,14.4,29.69,North,-999,-999.0,-999.0,27,-99.99,,,-99.99,meteohub,2013-03-20 06:44:00,
2013-03-20 02:49:00,46.2,14.9,29.69,North,-999,-999.0,-999.0,28,-99.99,,,-99.99,meteohub,2013-03-20 06:49:00,
2013-03-20 02:55:00,46.0,14.9,29.69,North,-999,-999.0,-999.0,28,-99.99,,,-99.99,meteohub,2013-03-20 06:55:00,
2013-03-20 03:00:00,45.7,14.5,29.69,North,-999,-999.0,-999.0,28,-99.99,,,-99.99,meteohub,2013-03-20 07:00:00,
2013-03-20 03:05:00,45.5,14.4,29.69,North,-999,-999.0,-999.0,28,-99.99,,,-99.99,meteohub,2013-03-20 07:05:00,
2013-03-20 03:10:00,45.1,14.0,29.69,North,-999,-999.0,-999.0,28,-99.99,,,-99.99,meteohub,2013-03-20 07:10:00,
2013-03-20 03:15:00,45.0,13.8,29.69,North,-999,-999.0,-999.0,28,-99.99,,,-99.99,meteohub,2013-03-20 07:15:00,
2013-03-20 03:20:00,44.8,13.8,29.69,North,-999,-999.0,-999.0,28,-99.99,,,-99.99,meteohub,2013-03-20 07:20:00,
2013-03-20 03:26:00,44.4,13.5,29.69,North,-999,-999.0,-999.0,28,-99.99,,,-99.99,meteohub,2013-03-20 07:26:00,
2013-03-20 03:31:00,44.2,13.3,29.69,North,-999,-999.0,-999.0,28,-99.99,,,-99.99,meteohub,2013-03-20 07:31:00,
2013-03-20 03:36:00,43.7,12.7,29.69,North,-999,-999.0,-999.0,28,-99.99,,,-99.99,meteohub,2013-03-20 07:36:00,
2013-03-20 03:41:00,43.5,12.7,29.69,North,-999,-999.0,-999.0,28,-99.99,,,-99.99,meteohub,2013-03-20 07:41:00,
2013-03-20 03:47:00,43.2,12.4,29.69,North,-999,-999.0,-999.0,28,-99.99,,,-99.99,meteohub,2013-03-20 07:47:00,
2013-03-20 03:52:00,42.6,12.7,29.69,North,-999,-999.0,-999.0,29,-99.99,,,-99.99,meteohub,2013-03-20 07:52:00,
2013-03-20 03:57:00,42.4,12.6,29.69,North,-999,-999.0,-999.0,29,-99.99,,,-99.99,meteohub,2013-03-20 07:57:00,
2013-03-20 04:03:00,42.1,12.2,29.69,North,-999,-999.0,-999.0,29,-99.99,,,-99.99,meteohub,2013-03-20 08:03:00,
2013-03-20 04:08:00,41.7,11.8,29.69,North,-999,-999.0,-999.0,29,-99.99,,,-99.99,meteohub,2013-03-20 08:08:00,
2013-03-20 04:13:00,41.5,11.7,29.69,North,-999,-999.0,-999.0,29,-99.99,,,-99.99,meteohub,2013-03-20 08:13:00,
2013-03-20 04:18:00,41.4,11.5,29.69,North,-999,-999.0,-999.0,29,-99.99,,,-99.99,meteohub,2013-03-20 08:18:00,
2013-03-20 04:23:00,41.0,11.3,29.69,North,-999,-999.0,-999.0,29,-99.99,,,-99.99,meteohub,2013-03-20 08:23:00,
2013-03-20 04:28:00,41.0,11.3,29.69,North,-999,-999.0,-999.0,29,-99.99,,,-99.99,meteohub,2013-03-20 08:28:00,
2013-03-20 04:34:00,40.6,11.7,29.69,North,-999,-999.0,-999.0,30,-99.99,,,-99.99,meteohub,2013-03-20 08:34:00,
2013-03-20 04:39:00,40.6,11.7,29.69,North,-999,-999.0,-999.0,30,-99.99,,,-99.99,meteohub,2013-03-20 08:39:00,
2013-03-20 04:44:00,40.5,11.5,29.69,North,-999,-999.0,-999.0,30,-99.99,,,-99.99,meteohub,2013-03-20 08:44:00,
2013-03-20 04:49:00,40.5,11.5,29.69,North,-999,-999.0,-999.0,30,-99.99,,,-99.99,meteohub,2013-03-20 08:49:00,
2013-03-20 04:54:00,40.5,11.5,29.69,North,-999,-999.0,-999.0,30,-99.99,,,-99.99,meteohub,2013-03-20 08:54:00,
2013-03-20 04:59:00,40.3,12.2,29.69,North,-999,-999.0,-999.0,31,-99.99,,,-99.99,meteohub,2013-03-20 08:59:00,
2013-03-20 05:04:00,40.3,12.9,29.69,North,-999,-999.0,-999.0,32,-99.99,,,-99.99,meteohub,2013-03-20 09:04:00,
2013-03-20 05:10:00,40.3,12.9,29.69,North,-999,-999.0,-999.0,32,-99.99,,,-99.99,meteohub,2013-03-20 09:10:00,
2013-03-20 05:15:00,40.3,13.5,29.69,North,-999,-999.0,-999.0,33,-99.99,,,-99.99,meteohub,2013-03-20 09:15:00,
2013-03-20 05:20:00,40.3,13.5,29.69,North,-999,-999.0,-999.0,33,-99.99,,,-99.99,meteohub,2013-03-20 09:20:00,
2013-03-20 05:25:00,40.3,13.5,29.69,North,-999,-999.0,-999.0,33,-99.99,,,-99.99,meteohub,2013-03-20 09:25:00,
2013-03-20 05:30:00,40.5,13.6,29.69,North,-999,-999.0,-999.0,33,-99.99,,,-99.99,meteohub,2013-03-20 09:30:00,
2013-03-20 05:35:00,40.8,14.0,29.69,North,-999,-999.0,-999.0,33,-99.99,,,-99.99,meteohub,2013-03-20 09:35:00,
2013-03-20 05:41:00,41.0,13.5,29.69,North,-999,-999.0,-999.0,32,-99.99,,,-99.99,meteohub,2013-03-20 09:41:00,
2013-03-20 05:46:00,41.0,13.5,29.69,North,-999,-999.0,-999.0,32,-99.99,,,-99.99,meteohub,2013-03-20 09:46:00,
2013-03-20 05:51:00,41.2,13.6,29.69,North,-999,-999.0,-999.0,32,-99.99,,,-99.99,meteohub,2013-03-20 09:51:00,
2013-03-20 05:57:00,41.4,13.1,29.69,North,-999,-999.0,-999.0,31,-99.99,,,-99.99,meteohub,2013-03-20 09:57:00,
2013-03-20 06:02:00,41.4,13.1,29.69,North,-999,-999.0,-999.0,31,-99.99,,,-99.99,meteohub,2013-03-20 10:02:00,
2013-03-20 06:07:00,41.4,13.1,29.69,North,-999,-999.0,-999.0,31,-99.99,,,-99.99,meteohub,2013-03-20 10:07:00,
2013-03-20 06:12:00,41.2,12.9,29.69,North,-999,-999.0,-999.0,31,-99.99,,,-99.99,meteohub,2013-03-20 10:12:00,
2013-03-20 06:17:00,41.2,12.9,29.69,North,-999,-999.0,-999.0,31,-99.99,,,-99.99,meteohub,2013-03-20 10:17:00,
2013-03-20 06:22:00,41.0,12.7,29.69,North,-999,-999.0,-999.0,31,-99.99,,,-99.99,meteohub,2013-03-20 10:22:00,
2013-03-20 06:27:00,40.8,12.6,29.69,North,-999,-999.0,-999.0,31,-99.99,,,-99.99,meteohub,2013-03-20 10:27:00,
2013-03-20 06:32:00,40.6,12.4,29.69,North,-999,-999.0,-999.0,31,-99.99,,,-99.99,meteohub,2013-03-20 10:32:00,
2013-03-20 06:37:00,40.6,12.4,29.69,North,-999,-999.0,-999.0,31,-99.99,,,-99.99,meteohub,2013-03-20 10:37:00,
2013-03-20 06:42:00,40.5,12.9,29.69,North,-999,-999.0,-999.0,32,-99.99,,,-99.99,meteohub,2013-03-20 10:42:00,
2013-03-20 06:47:00,40.5,12.9,29.69,North,-999,-999.0,-999.0,32,-99.99,,,-99.99,meteohub,2013-03-20 10:47:00,
2013-03-20 06:52:00,40.5,12.9,29.72,North,-999,-999.0,-999.0,32,-99.99,,,-99.99,meteohub,2013-03-20 10:52:00,
2013-03-20 06:57:00,40.5,12.9,29.72,North,-999,-999.0,-999.0,32,-99.99,,,-99.99,meteohub,2013-03-20 10:57:00,
2013-03-20 07:02:00,40.5,12.9,29.72,North,-999,-999.0,-999.0,32,-99.99,,,-99.99,meteohub,2013-03-20 11:02:00,
2013-03-20 07:07:00,40.5,12.9,29.72,North,-999,-999.0,-999.0,32,-99.99,,,-99.99,meteohub,2013-03-20 11:07:00,
2013-03-20 07:12:00,40.5,12.9,29.72,North,-999,-999.0,-999.0,32,-99.99,,,-99.99,meteohub,2013-03-20 11:12:00,
2013-03-20 07:17:00,40.3,12.9,29.72,North,-999,-999.0,-999.0,32,-99.99,,,-99.99,meteohub,2013-03-20 11:17:00,
2013-03-20 07:23:00,40.3,12.9,29.75,North,-999,-999.0,-999.0,32,-99.99,,,-99.99,meteohub,2013-03-20 11:23:00,
2013-03-20 07:27:00,40.3,12.9,29.75,North,-999,-999.0,-999.0,32,-99.99,,,-99.99,meteohub,2013-03-20 11:27:00,
2013-03-20 07:33:00,40.3,12.9,29.75,North,-999,-999.0,-999.0,32,-99.99,,,-99.99,meteohub,2013-03-20 11:33:00,
2013-03-20 07:38:00,40.5,12.9,29.75,North,-999,-999.0,-999.0,32,-99.99,,,-99.99,meteohub,2013-03-20 11:38:00,
2013-03-20 07:43:00,40.6,13.1,29.75,North,-999,-999.0,-999.0,32,-99.99,,,-99.99,meteohub,2013-03-20 11:43:00,
2013-03-20 07:48:00,41.0,13.5,29.75,North,-999,-999.0,-999.0,32,-99.99,,,-99.99,meteohub,2013-03-20 11:48:00,
2013-03-20 07:54:00,41.2,13.6,29.75,North,-999,-999.0,-999.0,32,-99.99,,,-99.99,meteohub,2013-03-20 11:54:00,
2013-03-20 07:59:00,41.5,14.0,29.75,North,-999,-999.0,-999.0,32,-99.99,,,-99.99,meteohub,2013-03-20 11:59:00,
2013-03-20 08:04:00,41.9,14.2,29.75,North,-999,-999.0,-999.0,32,-99.99,,,-99.99,meteohub,2013-03-20 12:04:00,
2013-03-20 08:09:00,42.1,14.4,29.78,North,-999,-999.0,-999.0,32,-99.99,,,-99.99,meteohub,2013-03-20 12:09:00,
2013-03-20 08:14:00,42.3,13.8,29.78,North,-999,-999.0,-999.0,31,-99.99,,,-99.99,meteohub,2013-03-20 12:14:00,
2013-03-20 08:19:00,42.6,14.2,29.78,North,-999,-999.0,-999.0,31,-99.99,,,-99.99,meteohub,2013-03-20 12:19:00,
2013-03-20 08:24:00,43.0,14.5,29.78,North,-999,-999.0,-999.0,31,-99.99,,,-99.99,meteohub,2013-03-20 12:24:00,
2013-03-20 08:29:00,43.2,14.7,29.78,North,-999,-999.0,-999.0,31,-99.99,,,-99.99,meteohub,2013-03-20 12:29:00,
2013-03-20 08:34:00,43.3,14.7,29.78,North,-999,-999.0,-999.0,31,-99.99,,,-99.99,meteohub,2013-03-20 12:34:00,
2013-03-20 08:40:00,43.5,14.9,29.78,North,-999,-999.0,-999.0,31,-99.99,,,-99.99,meteohub,2013-03-20 12:40:00,
2013-03-20 08:45:00,43.7,15.1,29.78,North,-999,-999.0,-999.0,31,-99.99,,,-99.99,meteohub,2013-03-20 12:45:00,
2013-03-20 08:50:00,44.1,15.4,29.78,North,-999,-999.0,-999.0,31,-99.99,,,-99.99,meteohub,2013-03-20 12:50:00,
2013-03-20 08:55:00,44.2,15.6,29.78,North,-999,-999.0,-999.0,31,-99.99,,,-99.99,meteohub,2013-03-20 12:55:00,
2013-03-20 09:00:00,44.6,15.1,29.78,North,-999,-999.0,-999.0,30,-99.99,,,-99.99,meteohub,2013-03-20 13:00:00,
2013-03-20 09:05:00,44.8,15.3,29.78,North,-999,-999.0,-999.0,30,-99.99,,,-99.99,meteohub,2013-03-20 13:05:00,
2013-03-20 09:11:00,44.8,15.3,29.78,North,-999,-999.0,-999.0,30,-99.99,,,-99.99,meteohub,2013-03-20 13:11:00,
2013-03-20 09:16:00,45.0,15.4,29.78,North,-999,-999.0,-999.0,30,-99.99,,,-99.99,meteohub,2013-03-20 13:16:00,
2013-03-20 09:21:00,45.1,14.9,29.78,North,-999,-999.0,-999.0,29,-99.99,,,-99.99,meteohub,2013-03-20 13:21:00,
2013-03-20 09:26:00,45.3,15.8,29.78,North,-999,-999.0,-999.0,30,-99.99,,,-99.99,meteohub,2013-03-20 13:26:00,
2013-03-20 09:31:00,45.3,15.1,29.78,North,-999,-999.0,-999.0,29,-99.99,,,-99.99,meteohub,2013-03-20 13:31:00,
2013-03-20 09:37:00,45.5,16.0,29.78,North,-999,-999.0,-999.0,30,-99.99,,,-99.99,meteohub,2013-03-20 13:37:00,
2013-03-20 09:42:00,45.9,15.4,29.78,North,-999,-999.0,-999.0,29,-99.99,,,-99.99,meteohub,2013-03-20 13:42:00,
2013-03-20 09:47:00,46.2,15.8,29.78,North,-999,-999.0,-999.0,29,-99.99,,,-99.99,meteohub,2013-03-20 13:47:00,
2013-03-20 09:52:00,46.4,16.0,29.78,North,-999,-999.0,-999.0,29,-99.99,,,-99.99,meteohub,2013-03-20 13:52:00,
2013-03-20 09:57:00,46.6,16.2,29.78,North,-999,-999.0,-999.0,29,-99.99,,,-99.99,meteohub,2013-03-20 13:57:00,
2013-03-20 10:02:00,46.9,16.3,29.78,North,-999,-999.0,-999.0,29,-99.99,,,-99.99,meteohub,2013-03-20 14:02:00,
2013-03-20 10:07:00,47.1,16.5,29.78,North,-999,-999.0,-999.0,29,-99.99,,,-99.99,meteohub,2013-03-20 14:07:00,
2013-03-20 10:12:00,47.3,16.7,29.78,North,-999,-999.0,-999.0,29,-99.99,,,-99.99,meteohub,2013-03-20 14:12:00,
2013-03-20 10:17:00,47.5,16.9,29.78,North,-999,-999.0,-999.0,29,-99.99,,,-99.99,meteohub,2013-03-20 14:17:00,
2013-03-20 10:23:00,47.7,17.1,29.78,North,-999,-999.0,-999.0,29,-99.99,,,-99.99,meteohub,2013-03-20 14:23:00,
2013-03-20 10:28:00,47.8,17.2,29.78,North,-999,-999.0,-999.0,29,-99.99,,,-99.99,meteohub,2013-03-20 14:28:00,
2013-03-20 10:33:00,48.2,16.7,29.78,North,-999,-999.0,-999.0,28,-99.99,,,-99.99,meteohub,2013-03-20 14:33:00,
2013-03-20 10:38:00,48.2,17.4,29.78,North,-999,-999.0,-999.0,29,-99.99,,,-99.99,meteohub,2013-03-20 14:38:00,
2013-03-20 10:43:00,48.4,16.9,29.78,North,-999,-999.0,-999.0,28,-99.99,,,-99.99,meteohub,2013-03-20 14:43:00,
2013-03-20 10:49:00,48.7,17.2,29.78,North,-999,-999.0,-999.0,28,-99.99,,,-99.99,meteohub,2013-03-20 14:49:00,
2013-03-20 10:54:00,48.7,17.2,29.78,North,-999,-999.0,-999.0,28,-99.99,,,-99.99,meteohub,2013-03-20 14:54:00,
2013-03-20 10:59:00,48.7,17.2,29.78,North,-999,-999.0,-999.0,28,-99.99,,,-99.99,meteohub,2013-03-20 14:59:00,
2013-03-20 11:04:00,49.1,17.4,29.78,North,-999,-999.0,-999.0,28,-99.99,,,-99.99,meteohub,2013-03-20 15:04:00,
2013-03-20 11:09:00,49.3,17.6,29.78,North,-999,-999.0,-999.0,28,-99.99,,,-99.99,meteohub,2013-03-20 15:09:00,
2013-03-20 11:14:00,48.7,17.2,29.78,North,-999,-999.0,-999.0,28,-99.99,,,-99.99,meteohub,2013-03-20 15:14:00,
2013-03-20 11:19:00,48.9,17.2,29.78,North,-999,-999.0,-999.0,28,-99.99,,,-99.99,meteohub,2013-03-20 15:19:00,
2013-03-20 11:24:00,49.1,17.4,29.78,North,-999,-999.0,-999.0,28,-99.99,,,-99.99,meteohub,2013-03-20 15:24:00,
2013-03-20 11:30:00,49.1,17.4,29.78,North,-999,-999.0,-999.0,28,-99.99,,,-99.99,meteohub,2013-03-20 15:30:00,
2013-03-20 11:35:00,49.3,17.6,29.75,North,-999,-999.0,-999.0,28,-99.99,,,-99.99,meteohub,2013-03-20 15:35:00,
2013-03-20 11:40:00,49.5,17.8,29.75,North,-999,-999.0,-999.0,28,-99.99,,,-99.99,meteohub,2013-03-20 15:40:00,
2013-03-20 11:45:00,49.6,18.0,29.75,North,-999,-999.0,-999.0,28,-99.99,,,-99.99,meteohub,2013-03-20 15:45:00,
2013-03-20 11:51:00,50.0,17.4,29.75,North,-999,-999.0,-999.0,27,-99.99,,,-99.99,meteohub,2013-03-20 15:51:00,
2013-03-20 11:57:00,50.9,18.1,29.75,North,-999,-999.0,-999.0,27,-99.99,,,-99.99,meteohub,2013-03-20 15:57:00,
2013-03-20 12:02:00,52.0,19.0,29.75,North,-999,-999.0,-999.0,27,-99.99,,,-99.99,meteohub,2013-03-20 16:02:00,
2013-03-20 12:07:00,52.2,19.2,29.75,North,-999,-999.0,-999.0,27,-99.99,,,-99.99,meteohub,2013-03-20 16:07:00,
2013-03-20 12:12:00,52.5,19.6,29.75,North,-999,-999.0,-999.0,27,-99.99,,,-99.99,meteohub,2013-03-20 16:12:00,
2013-03-20 12:17:00,52.7,19.8,29.75,North,-999,-999.0,-999.0,27,-99.99,,,-99.99,meteohub,2013-03-20 16:17:00,
2013-03-20 12:22:00,53.4,20.3,29.72,North,-999,-999.0,-999.0,27,-99.99,,,-99.99,meteohub,2013-03-20 16:22:00,
2013-03-20 12:27:00,52.7,19.8,29.72,North,-999,-999.0,-999.0,27,-99.99,,,-99.99,meteohub,2013-03-20 16:27:00,
2013-03-20 12:32:00,52.2,19.2,29.72,North,-999,-999.0,-999.0,27,-99.99,,,-99.99,meteohub,2013-03-20 16:32:00,
2013-03-20 12:37:00,52.5,19.6,29.75,North,-999,-999.0,-999.0,27,-99.99,,,-99.99,meteohub,2013-03-20 16:37:00,
2013-03-20 12:42:00,53.2,20.1,29.75,North,-999,-999.0,-999.0,27,-99.99,,,-99.99,meteohub,2013-03-20 16:42:00,
2013-03-20 12:47:00,53.4,20.3,29.75,North,-999,-999.0,-999.0,27,-99.99,,,-99.99,meteohub,2013-03-20 16:47:00,
2013-03-20 12:53:00,53.4,20.3,29.72,North,-999,-999.0,-999.0,27,-99.99,,,-99.99,meteohub,2013-03-20 16:53:00,
2013-03-20 12:58:00,53.4,20.3,29.72,North,-999,-999.0,-999.0,27,-99.99,,,-99.99,meteohub,2013-03-20 16:58:00,
2013-03-20 13:03:00,54.1,20.1,29.72,North,-999,-999.0,-999.0,26,-99.99,,,-99.99,meteohub,2013-03-20 17:03:00,
2013-03-20 13:08:00,54.0,19.9,29.72,North,-999,-999.0,-999.0,26,-99.99,,,-99.99,meteohub,2013-03-20 17:08:00,
2013-03-20 13:13:00,53.4,19.4,29.72,North,-999,-999.0,-999.0,26,-99.99,,,-99.99,meteohub,2013-03-20 17:13:00,
2013-03-20 13:18:00,54.1,20.1,29.72,North,-999,-999.0,-999.0,26,-99.99,,,-99.99,meteohub,2013-03-20 17:18:00,
2013-03-20 13:24:00,54.1,20.1,29.72,North,-999,-999.0,-999.0,26,-99.99,,,-99.99,meteohub,2013-03-20 17:24:00,
2013-03-20 13:29:00,53.6,19.6,29.72,North,-999,-999.0,-999.0,26,-99.99,,,-99.99,meteohub,2013-03-20 17:29:00,
2013-03-20 13:34:00,52.5,18.7,29.72,North,-999,-999.0,-999.0,26,-99.99,,,-99.99,meteohub,2013-03-20 17:34:00,
2013-03-20 13:39:00,53.8,19.8,29.72,North,-999,-999.0,-999.0,26,-99.99,,,-99.99,meteohub,2013-03-20 17:39:00,
2013-03-20 13:44:00,53.4,19.4,29.72,North,-999,-999.0,-999.0,26,-99.99,,,-99.99,meteohub,2013-03-20 17:44:00,
2013-03-20 13:50:00,53.2,19.2,29.69,North,-999,-999.0,-999.0,26,-99.99,,,-99.99,meteohub,2013-03-20 17:50:00,
2013-03-20 13:55:00,53.6,19.6,29.69,North,-999,-999.0,-999.0,26,-99.99,,,-99.99,meteohub,2013-03-20 17:55:00,
2013-03-20 14:00:00,53.6,19.6,29.69,North,-999,-999.0,-999.0,26,-99.99,,,-99.99,meteohub,2013-03-20 18:00:00,
2013-03-20 14:05:00,53.2,19.2,29.66,North,-999,-999.0,-999.0,26,-99.99,,,-99.99,meteohub,2013-03-20 18:05:00,
2013-03-20 14:10:00,55.0,20.8,29.66,North,-999,-999.0,-999.0,26,-99.99,,,-99.99,meteohub,2013-03-20 18:10:00,
2013-03-20 14:16:00,55.6,20.3,29.66,North,-999,-999.0,-999.0,25,-99.99,,,-99.99,meteohub,2013-03-20 18:16:00,
2013-03-20 14:21:00,55.2,21.0,29.66,North,-999,-999.0,-999.0,26,-99.99,,,-99.99,meteohub,2013-03-20 18:21:00,
2013-03-20 14:26:00,55.4,20.3,29.66,North,-999,-999.0,-999.0,25,-99.99,,,-99.99,meteohub,2013-03-20 18:26:00,
2013-03-20 14:31:00,55.9,20.7,29.66,North,-999,-999.0,-999.0,25,-99.99,,,-99.99,meteohub,2013-03-20 18:31:00,
2013-03-20 14:37:00,55.4,20.3,29.63,North,-999,-999.0,-999.0,25,-99.99,,,-99.99,meteohub,2013-03-20 18:37:00,
2013-03-20 14:42:00,54.5,20.3,29.63,North,-999,-999.0,-999.0,26,-99.99,,,-99.99,meteohub,2013-03-20 18:42:00,
2013-03-20 14:47:00,55.2,21.0,29.63,North,-999,-999.0,-999.0,26,-99.99,,,-99.99,meteohub,2013-03-20 18:47:00,
2013-03-20 14:52:00,55.9,20.7,29.63,North,-999,-999.0,-999.0,25,-99.99,,,-99.99,meteohub,2013-03-20 18:52:00,
2013-03-20 14:57:00,55.8,20.5,29.63,North,-999,-999.0,-999.0,25,-99.99,,,-99.99,meteohub,2013-03-20 18:57:00,
2013-03-20 15:02:00,55.9,20.7,29.63,North,-999,-999.0,-999.0,25,-99.99,,,-99.99,meteohub,2013-03-20 19:02:00,
2013-03-20 15:07:00,56.3,21.0,29.63,North,-999,-999.0,-999.0,25,-99.99,,,-99.99,meteohub,2013-03-20 19:07:00,
2013-03-20 15:12:00,55.9,20.7,29.63,North,-999,-999.0,-999.0,25,-99.99,,,-99.99,meteohub,2013-03-20 19:12:00,
2013-03-20 15:17:00,56.1,20.8,29.63,North,-999,-999.0,-999.0,25,-99.99,,,-99.99,meteohub,2013-03-20 19:17:00,
2013-03-20 15:22:00,56.1,20.8,29.60,North,-999,-999.0,-999.0,25,-99.99,,,-99.99,meteohub,2013-03-20 19:22:00,
2013-03-20 15:27:00,55.9,20.7,29.60,North,-999,-999.0,-999.0,25,-99.99,,,-99.99,meteohub,2013-03-20 19:27:00,
2013-03-20 15:32:00,55.9,20.7,29.60,North,-999,-999.0,-999.0,25,-99.99,,,-99.99,meteohub,2013-03-20 19:32:00,
2013-03-20 15:37:00,56.1,20.8,29.60,North,-999,-999.0,-999.0,25,-99.99,,,-99.99,meteohub,2013-03-20 19:37:00,
2013-03-20 15:42:00,56.3,21.0,29.60,North,-999,-999.0,-999.0,25,-99.99,,,-99.99,meteohub,2013-03-20 19:42:00,
2013-03-20 15:47:00,55.8,20.5,29.60,North,-999,-999.0,-999.0,25,-99.99,,,-99.99,meteohub,2013-03-20 19:47:00,
2013-03-20 15:52:00,56.3,21.0,29.57,North,-999,-999.0,-999.0,25,-99.99,,,-99.99,meteohub,2013-03-20 19:52:00,
2013-03-20 15:57:00,56.5,21.2,29.57,North,-999,-999.0,-999.0,25,-99.99,,,-99.99,meteohub,2013-03-20 19:57:00,
2013-03-20 16:02:00,56.7,22.3,29.57,North,-999,-999.0,-999.0,26,-99.99,,,-99.99,meteohub,2013-03-20 20:02:00,
2013-03-20 16:08:00,56.8,21.4,29.57,North,-999,-999.0,-999.0,25,-99.99,,,-99.99,meteohub,2013-03-20 20:08:00,
2013-03-20 16:13:00,56.3,21.0,29.57,North,-999,-999.0,-999.0,25,-99.99,,,-99.99,meteohub,2013-03-20 20:13:00,
2013-03-20 16:18:00,56.1,20.8,29.57,North,-999,-999.0,-999.0,25,-99.99,,,-99.99,meteohub,2013-03-20 20:18:00,
2013-03-20 16:24:00,55.9,20.7,29.54,North,-999,-999.0,-999.0,25,-99.99,,,-99.99,meteohub,2013-03-20 20:24:00,
2013-03-20 16:29:00,55.4,20.3,29.54,North,-999,-999.0,-999.0,25,-99.99,,,-99.99,meteohub,2013-03-20 20:29:00,
2013-03-20 16:34:00,55.6,20.3,29.54,North,-999,-999.0,-999.0,25,-99.99,,,-99.99,meteohub,2013-03-20 20:34:00,
2013-03-20 16:39:00,55.4,20.3,29.54,North,-999,-999.0,-999.0,25,-99.99,,,-99.99,meteohub,2013-03-20 20:39:00,
2013-03-20 16:44:00,55.4,20.3,29.54,North,-999,-999.0,-999.0,25,-99.99,,,-99.99,meteohub,2013-03-20 20:44:00,
2013-03-20 16:49:00,55.6,20.3,29.54,North,-999,-999.0,-999.0,25,-99.99,,,-99.99,meteohub,2013-03-20 20:49:00,
2013-03-20 16:55:00,55.8,20.5,29.54,North,-999,-999.0,-999.0,25,-99.99,,,-99.99,meteohub,2013-03-20 20:55:00,
2013-03-20 17:00:00,55.6,20.3,29.54,North,-999,-999.0,-999.0,25,-99.99,,,-99.99,meteohub,2013-03-20 21:00:00,
2013-03-20 17:05:00,55.4,20.3,29.54,North,-999,-999.0,-999.0,25,-99.99,,,-99.99,meteohub,2013-03-20 21:05:00,
2013-03-20 17:10:00,55.4,20.3,29.54,North,-999,-999.0,-999.0,25,-99.99,,,-99.99,meteohub,2013-03-20 21:10:00,
2013-03-20 17:19:00,55.2,21.0,29.54,North,-999,-999.0,-999.0,26,-99.99,,,-99.99,meteohub,2013-03-20 21:19:00,
2013-03-20 17:24:00,55.4,20.3,29.54,North,-999,-999.0,-999.0,25,-99.99,,,-99.99,meteohub,2013-03-20 21:24:00,
2013-03-20 17:29:00,55.2,21.0,29.54,North,-999,-999.0,-999.0,26,-99.99,,,-99.99,meteohub,2013-03-20 21:29:00,
2013-03-20 17:34:00,55.0,20.8,29.54,North,-999,-999.0,-999.0,26,-99.99,,,-99.99,meteohub,2013-03-20 21:34:00,
2013-03-20 17:40:00,55.2,21.0,29.54,North,-999,-999.0,-999.0,26,-99.99,,,-99.99,meteohub,2013-03-20 21:40:00,
2013-03-20 17:45:00,55.2,21.0,29.54,North,-999,-999.0,-999.0,26,-99.99,,,-99.99,meteohub,2013-03-20 21:45:00,
2013-03-20 17:50:00,55.0,20.8,29.54,North,-999,-999.0,-999.0,26,-99.99,,,-99.99,meteohub,2013-03-20 21:50:00,
2013-03-20 17:55:00,54.9,20.7,29.54,North,-999,-999.0,-999.0,26,-99.99,,,-99.99,meteohub,2013-03-20 21:55:00,
2013-03-20 18:00:00,54.5,20.3,29.54,North,-999,-999.0,-999.0,26,-99.99,,,-99.99,meteohub,2013-03-20 22:00:00,
2013-03-20 18:05:00,54.3,20.3,29.54,North,-999,-999.0,-999.0,26,-99.99,,,-99.99,meteohub,2013-03-20 22:05:00,
2013-03-20 18:11:00,54.3,20.3,29.54,North,-999,-999.0,-999.0,26,-99.99,,,-99.99,meteohub,2013-03-20 22:11:00,
2013-03-20 18:16:00,54.1,20.1,29.54,North,-999,-999.0,-999.0,26,-99.99,,,-99.99,meteohub,2013-03-20 22:16:00,
2013-03-20 18:22:00,54.0,19.9,29.54,North,-999,-999.0,-999.0,26,-99.99,,,-99.99,meteohub,2013-03-20 22:22:00,
2013-03-20 18:27:00,53.8,19.8,29.54,North,-999,-999.0,-999.0,26,-99.99,,,-99.99,meteohub,2013-03-20 22:27:00,
2013-03-20 18:32:00,53.6,19.6,29.54,North,-999,-999.0,-999.0,26,-99.99,,,-99.99,meteohub,2013-03-20 22:32:00,
2013-03-20 18:37:00,53.4,19.4,29.54,North,-999,-999.0,-999.0,26,-99.99,,,-99.99,meteohub,2013-03-20 22:37:00,
2013-03-20 18:42:00,53.1,19.2,29.54,North,-999,-999.0,-999.0,26,-99.99,,,-99.99,meteohub,2013-03-20 22:42:00,
2013-03-20 18:47:00,53.1,19.2,29.54,North,-999,-999.0,-999.0,26,-99.99,,,-99.99,meteohub,2013-03-20 22:47:00,
2013-03-20 18:52:00,52.9,19.0,29.54,North,-999,-999.0,-999.0,26,-99.99,,,-99.99,meteohub,2013-03-20 22:52:00,
2013-03-20 18:57:00,52.7,18.9,29.54,North,-999,-999.0,-999.0,26,-99.99,,,-99.99,meteohub,2013-03-20 22:57:00,
2013-03-20 19:02:00,52.3,18.5,29.54,North,-999,-999.0,-999.0,26,-99.99,,,-99.99,meteohub,2013-03-20 23:02:00,
2013-03-20 19:07:00,52.0,18.1,29.54,North,-999,-999.0,-999.0,26,-99.99,,,-99.99,meteohub,2013-03-20 23:07:00,
2013-03-20 19:12:00,51.8,18.9,29.54,North,-999,-999.0,-999.0,27,-99.99,,,-99.99,meteohub,2013-03-20 23:12:00,
2013-03-20 19:18:00,51.4,18.7,29.54,North,-999,-999.0,-999.0,27,-99.99,,,-99.99,meteohub,2013-03-20 23:18:00,
2013-03-20 19:23:00,51.1,18.3,29.51,North,-999,-999.0,-999.0,27,-99.99,,,-99.99,meteohub,2013-03-20 23:23:00,
2013-03-20 19:28:00,50.5,17.8,29.51,North,-999,-999.0,-999.0,27,-99.99,,,-99.99,meteohub,2013-03-20 23:28:00,
2013-03-20 19:33:00,50.2,17.6,29.51,North,-999,-999.0,-999.0,27,-99.99,,,-99.99,meteohub,2013-03-20 23:33:00,
2013-03-20 19:39:00,49.8,18.1,29.51,North,-999,-999.0,-999.0,28,-99.99,,,-99.99,meteohub,2013-03-20 23:39:00,
2013-03-20 19:44:00,49.6,18.0,29.51,North,-999,-999.0,-999.0,28,-99.99,,,-99.99,meteohub,2013-03-20 23:44:00,
2013-03-20 19:49:00,48.9,17.2,29.51,North,-999,-999.0,-999.0,28,-99.99,,,-99.99,meteohub,2013-03-20 23:49:00,
2013-03-20 19:54:00,48.7,17.2,29.51,North,-999,-999.0,-999.0,28,-99.99,,,-99.99,meteohub,2013-03-20 23:54:00,
2013-03-20 19:59:00,48.4,16.9,29.51,North,-999,-999.0,-999.0,28,-99.99,,,-99.99,meteohub,2013-03-20 23:59:00,
2013-03-20 20:05:00,48.0,17.4,29.51,North,-999,-999.0,-999.0,29,-99.99,,,-99.99,meteohub,2013-03-21 00:05:00,
2013-03-20 20:10:00,47.7,17.1,29.51,North,-999,-999.0,-999.0,29,-99.99,,,-99.99,meteohub,2013-03-21 00:10:00,
2013-03-20 20:15:00,47.3,16.7,29.51,North,-999,-999.0,-999.0,29,-99.99,,,-99.99,meteohub,2013-03-21 00:15:00,
2013-03-20 20:20:00,46.9,16.3,29.51,North,-999,-999.0,-999.0,29,-99.99,,,-99.99,meteohub,2013-03-21 00:20:00,
2013-03-20 20:25:00,46.8,16.3,29.51,North,-999,-999.0,-999.0,29,-99.99,,,-99.99,meteohub,2013-03-21 00:25:00,
2013-03-20 20:31:00,46.6,16.9,29.51,North,-999,-999.0,-999.0,30,-99.99,,,-99.99,meteohub,2013-03-21 00:31:00,
2013-03-20 20:36:00,46.4,16.7,29.51,North,-999,-999.0,-999.0,30,-99.99,,,-99.99,meteohub,2013-03-21 00:36:00,
2013-03-20 20:41:00,46.2,16.5,29.51,North,-999,-999.0,-999.0,30,-99.99,,,-99.99,meteohub,2013-03-21 00:41:00,
2013-03-20 20:46:00,45.9,17.1,29.51,North,-999,-999.0,-999.0,31,-99.99,,,-99.99,meteohub,2013-03-21 00:46:00,
2013-03-20 20:52:00,45.5,17.4,29.51,North,-999,-999.0,-999.0,32,-99.99,,,-99.99,meteohub,2013-03-21 00:52:00,
2013-03-20 20:57:00,45.3,17.2,29.51,North,-999,-999.0,-999.0,32,-99.99,,,-99.99,meteohub,2013-03-21 00:57:00,
2013-03-20 21:02:00,44.8,16.7,29.51,North,-999,-999.0,-999.0,32,-99.99,,,-99.99,meteohub,2013-03-21 01:02:00,
2013-03-20 21:07:00,44.6,17.4,29.51,North,-999,-999.0,-999.0,33,-99.99,,,-99.99,meteohub,2013-03-21 01:07:00,
2013-03-20 21:12:00,44.2,17.8,29.51,North,-999,-999.0,-999.0,34,-99.99,,,-99.99,meteohub,2013-03-21 01:12:00,
2013-03-20 21:17:00,43.9,18.1,29.51,North,-999,-999.0,-999.0,35,-99.99,,,-99.99,meteohub,2013-03-21 01:17:00,
2013-03-20 21:22:00,43.7,19.2,29.48,North,-999,-999.0,-999.0,37,-99.99,,,-99.99,meteohub,2013-03-21 01:22:00,
2013-03-20 21:27:00,43.3,19.6,29.48,North,-999,-999.0,-999.0,38,-99.99,,,-99.99,meteohub,2013-03-21 01:27:00,
2013-03-20 21:33:00,43.0,19.2,29.48,North,-999,-999.0,-999.0,38,-99.99,,,-99.99,meteohub,2013-03-21 01:33:00,
2013-03-20 21:38:00,42.6,18.9,29.48,North,-999,-999.0,-999.0,38,-99.99,,,-99.99,meteohub,2013-03-21 01:38:00,
2013-03-20 21:43:00,42.4,19.2,29.48,North,-999,-999.0,-999.0,39,-99.99,,,-99.99,meteohub,2013-03-21 01:43:00,
2013-03-20 21:48:00,42.1,19.0,29.48,North,-999,-999.0,-999.0,39,-99.99,,,-99.99,meteohub,2013-03-21 01:48:00,
2013-03-20 21:53:00,41.7,18.7,29.48,North,-999,-999.0,-999.0,39,-99.99,,,-99.99,meteohub,2013-03-21 01:53:00,
2013-03-20 21:59:00,41.4,18.9,29.48,North,-999,-999.0,-999.0,40,-99.99,,,-99.99,meteohub,2013-03-21 01:59:00,
2013-03-20 22:04:00,41.0,19.2,29.48,North,-999,-999.0,-999.0,41,-99.99,,,-99.99,meteohub,2013-03-21 02:04:00,
2013-03-20 22:09:00,40.8,19.0,29.48,North,-999,-999.0,-999.0,41,-99.99,,,-99.99,meteohub,2013-03-21 02:09:00,
2013-03-20 22:14:00,40.6,18.9,29.48,North,-999,-999.0,-999.0,41,-99.99,,,-99.99,meteohub,2013-03-21 02:14:00,
2013-03-20 22:19:00,40.6,18.9,29.48,North,-999,-999.0,-999.0,41,-99.99,,,-99.99,meteohub,2013-03-21 02:19:00,
2013-03-20 22:24:00,40.5,18.7,29.48,North,-999,-999.0,-999.0,41,-99.99,,,-99.99,meteohub,2013-03-21 02:24:00,
2013-03-20 22:30:00,40.1,18.9,29.48,North,-999,-999.0,-999.0,42,-99.99,,,-99.99,meteohub,2013-03-21 02:30:00,
2013-03-20 22:35:00,40.1,18.9,29.48,North,-999,-999.0,-999.0,42,-99.99,,,-99.99,meteohub,2013-03-21 02:35:00,
2013-03-20 22:40:00,39.9,18.7,29.48,North,-999,-999.0,-999.0,42,-99.99,,,-99.99,meteohub,2013-03-21 02:40:00,
2013-03-20 22:45:00,39.9,18.7,29.48,North,-999,-999.0,-999.0,42,-99.99,,,-99.99,meteohub,2013-03-21 02:45:00,
2013-03-20 22:51:00,39.9,18.7,29.48,North,-999,-999.0,-999.0,42,-99.99,,,-99.99,meteohub,2013-03-21 02:51:00,
2013-03-20 22:56:00,39.7,18.5,29.48,North,-999,-999.0,-999.0,42,-99.99,,,-99.99,meteohub,2013-03-21 02:56:00,
2013-03-20 23:01:00,39.9,18.7,29.48,North,-999,-999.0,-999.0,42,-99.99,,,-99.99,meteohub,2013-03-21 03:01:00,
2013-03-20 23:07:00,39.9,18.7,29.48,North,-999,-999.0,-999.0,42,-99.99,,,-99.99,meteohub,2013-03-21 03:07:00,
2013-03-20 23:12:00,40.3,19.6,29.48,North,-999,-999.0,-999.0,43,-99.99,,,-99.99,meteohub,2013-03-21 03:12:00,
2013-03-20 23:17:00,40.5,19.8,29.48,North,-999,-999.0,-999.0,43,-99.99,,,-99.99,meteohub,2013-03-21 03:17:00,
2013-03-20 23:22:00,40.5,19.8,29.48,North,-999,-999.0,-999.0,43,-99.99,,,-99.99,meteohub,2013-03-21 03:22:00,
2013-03-20 23:27:00,40.6,19.9,29.48,North,-999,-999.0,-999.0,43,-99.99,,,-99.99,meteohub,2013-03-21 03:27:00,
2013-03-20 23:32:00,40.8,19.6,29.48,North,-999,-999.0,-999.0,42,-99.99,,,-99.99,meteohub,2013-03-21 03:32:00,
2013-03-20 23:37:00,40.8,20.1,29.45,North,-999,-999.0,-999.0,43,-99.99,,,-99.99,meteohub,2013-03-21 03:37:00,
2013-03-20 23:43:00,40.8,20.1,29.45,North,-999,-999.0,-999.0,43,-99.99,,,-99.99,meteohub,2013-03-21 03:43:00,
2013-03-20 23:48:00,40.8,21.2,29.45,North,-999,-999.0,-999.0,45,-99.99,,,-99.99,meteohub,2013-03-21 03:48:00,
2013-03-20 23:53:00,40.6,21.6,29.45,North,-999,-999.0,-999.0,46,-99.99,,,-99.99,meteohub,2013-03-21 03:53:00,
2013-03-20 23:58:00,40.6,22.1,29.45,North,-999,-999.0,-999.0,47,-99.99,,,-99.99,meteohub,2013-03-21 03:58:00,